Preview of NWS' New Version of Forecast
This preview is not operational and should not be used for support decisions.

Regional Weather Roundup (RWR)

Issued by National Weather Service (NWS)

                            
000
ASUS44 KMEG 231300
RWRTN 
TENNESSEE HOURLY STATE WEATHER ROUNDUP
NATIONAL WEATHER SERVICE MEMPHIS TN
800 AM CDT TUE JUL 23 2019

TNZ002-004-019-021-049-052-054-088>092-231400-
WEST TENNESSEE
  
CITY           SKY/WX    TMP DP  RH WIND       PRES   REMARKS
MEMPHIS INTL   FAIR      71  59  65 N15G22    30.07R                  
NWS MEMPHIS      N/A     71 N/A N/A MISG        N/A                   
JACKSON        FAIR      69  62  78 N12       30.07R                  
$$

TNZ008-025-027-028-033-062-065-066-231400-
NORTH MIDDLE TENNESSEE
  
CITY           SKY/WX    TMP DP  RH WIND       PRES   REMARKS
NASHVILLE      FAIR      70  62  76 N12       30.03R                  
CLARKSVILLE    FAIR      66  60  81 N13       30.06R                  
SMYRNA         PTSUNNY   69  65  86 N13       30.02R                  
CROSSVILLE     CLOUDY    64  62  93 N8        30.02R                  
$$

TNZ061-075-076-078-094-096-097-231400-
SOUTH MIDDLE TENNESSEE
  
CITY           SKY/WX    TMP DP  RH WIND       PRES   REMARKS
$$

TNZ017-018-042-046-047-231400-
NORTHEAST TENNESSEE
  
CITY           SKY/WX    TMP DP  RH WIND       PRES   REMARKS
TRI CITIES     LGT RAIN  64  61  90 N3        29.97R FOG              
$$

TNZ012-013-036-069-073-074-231400-
CENTRAL EAST TENNESSEE
  
CITY           SKY/WX    TMP DP  RH WIND       PRES   REMARKS
KNOXVILLE      HVY RAIN  67  65  93 N9        29.94R FOG              
OAK RIDGE      LGT RAIN  67  64  90 CALM      29.97R                  
$$

TNZ083-085-099-231400-
SOUTHEAST TENNESSEE
  
CITY           SKY/WX    TMP DP  RH WIND       PRES   REMARKS
CHATTANOOGA    PTSUNNY   73  69  87 N15       29.94R                  
$$

SKY/WX REPORTED AS FAIR MEANS FEW OR NO CLOUDS BELOW
12 THOUSAND FEET.